Metlakatla, AK

4:35 AM AKST on February 24, 2017 (GMT -0900)
Annette Island

Weather History for PANT - September, 2013

Change the Weather History Date:

Tuesday, September 17, 2013

  Actual Average Record
Temperature  
Mean Temperature 57 °F 54 °F  
Max Temperature 60 °F 59 °F 73 °F (2010)
Min Temperature 54 °F 48 °F 39 °F (1983)
Degree Days  
Heating Degree Days 8 11  
Month to date heating degree days 81 167  
Since 1 July heating degree days 383 568  
Cooling Degree Days 0    
Month to date cooling degree days 0  
Year to date cooling degree days 22  
Growing Degree Days 5 (Base 50)    
Moisture  
Dew Point 52 °F    
Average Humidity 0    
Maximum Humidity 0    
Minimum Humidity 0    
Precipitation  
Precipitation 0.02 in 0.32 in 2.61 in (1987)
Month to date precipitation 0.73 5.24  
Year to date precipitation 52.33 60.15  
Snow  
Snow 0.00 in 0.00 in 0.00 in (2015)
Month to date snowfall 0.0 0.0  
Since 1 July snowfall 0.0 0.0  
Since 1 September snowfall 0.0 0.0  
Snow Depth 0.00 in    
Sea Level Pressure  
Sea Level Pressure 29.80 in    
Wind  
Wind Speed 7 mph (SE)    
Max Wind Speed 13 mph    
Max Gust Speed 20 mph    
Visibility 10 miles    
Events Rain    
T = Trace of Precipitation, MM = Missing Value Source: NWS Daily Summary

Daily Weather History Graph

Daily Weather History Graph

Search for Another Location

Airport or City:

Trip Planner

Search our weather history database for the weather conditions in past years. The results will help you decide how hot, cold, wet, or windy it might be!

Date:

Astronomy

Sep. 17, 2013 Rise Set
Actual Time 6:23 AM AKDT 6:56 PM AKDT
Civil Twilight 5:46 AM AKDT 7:33 PM AKDT
Nautical Twilight 5:02 AM AKDT 8:16 PM AKDT
Astronomical Twilight 4:15 AM AKDT 9:03 PM AKDT
Moon 5:54 PM AKDT (9/17) 4:13 AM AKDT (9/17)
Length of Visible Light 13h 46m
Length of Day
12h 33m
Waxing Gibbous, 96% of the Moon is Illuminated
Sep 17
Waxing Gibbous
Sep 19
Full
Sep 26
Last Quarter
Oct 4
New
Oct 11
First Quarter

Hourly Weather History & Observations

Time (AKDT) Temp. Dew Point Humidity Pressure Visibility Wind Dir Wind Speed Gust Speed Precip Events Conditions
12:53 AM 53.1 °F 51.1 °F 93% 29.79 in 10.0 mi SE 4.6 mph - N/A   Mostly Cloudy
1:53 AM 55.0 °F 51.1 °F 86% 29.79 in 10.0 mi SE 5.8 mph - N/A   Overcast
2:53 AM 55.0 °F 52.0 °F 89% 29.79 in 10.0 mi SE 6.9 mph - N/A   Mostly Cloudy
3:53 AM 55.0 °F 51.1 °F 86% 29.79 in 10.0 mi SE 6.9 mph - N/A   Mostly Cloudy
4:53 AM 54.0 °F 51.1 °F 90% 29.78 in 10.0 mi SE 5.8 mph - N/A   Clear
5:53 AM 54.0 °F 52.0 °F 93% 29.78 in 10.0 mi SE 5.8 mph - N/A   Overcast
6:17 AM 55.4 °F 51.8 °F 88% 29.77 in 10.0 mi SE 8.1 mph - N/A   Overcast
6:29 AM 55.4 °F 51.8 °F 88% 29.77 in 10.0 mi SE 11.5 mph - N/A   Overcast
6:53 AM 55.0 °F 53.1 °F 93% 29.78 in 10.0 mi SE 9.2 mph - 0.00 in Rain Light Rain
7:53 AM 55.0 °F 54.0 °F 96% 29.78 in 10.0 mi SSE 10.4 mph - 0.00 in   Overcast
8:32 AM 55.4 °F 51.8 °F 88% 29.78 in 10.0 mi SSE 6.9 mph - N/A   Overcast
8:53 AM 54.0 °F 52.0 °F 93% 29.79 in 9.0 mi SE 9.2 mph 19.6 mph 0.00 in Rain Light Rain
9:42 AM 55.4 °F 53.6 °F 94% 29.79 in 10.0 mi SE 10.4 mph - 0.00 in   Overcast
9:53 AM 55.0 °F 53.1 °F 93% 29.80 in 10.0 mi SE 6.9 mph - 0.00 in   Overcast
10:25 AM 55.4 °F 53.6 °F 94% 29.79 in 10.0 mi SE 8.1 mph - 0.02 in   Overcast
10:51 AM 55.4 °F 53.6 °F 94% 29.79 in 10.0 mi SE 6.9 mph - 0.02 in   Overcast
10:53 AM 55.9 °F 54.0 °F 93% 29.80 in 10.0 mi SSE 5.8 mph - 0.02 in   Overcast
11:53 AM 57.0 °F 54.0 °F 89% 29.80 in 10.0 mi SSE 6.9 mph - N/A   Mostly Cloudy
12:03 PM 57.2 °F 53.6 °F 88% 29.79 in 10.0 mi SSE 8.1 mph - N/A   Mostly Cloudy
12:26 PM 57.2 °F 53.6 °F 88% 29.79 in 10.0 mi SSE 9.2 mph - N/A   Mostly Cloudy
12:53 PM 57.9 °F 53.1 °F 84% 29.80 in 10.0 mi SSE 11.5 mph - N/A   Clear
1:53 PM 57.9 °F 52.0 °F 81% 29.80 in 10.0 mi SSE 9.2 mph - N/A   Mostly Cloudy
2:53 PM 57.9 °F 52.0 °F 81% 29.80 in 10.0 mi SSE 10.4 mph - N/A   Partly Cloudy
3:53 PM 59.0 °F 50.0 °F 72% 29.79 in 10.0 mi SSE 8.1 mph - N/A   Clear
4:53 PM 57.9 °F 48.9 °F 72% 29.79 in 10.0 mi SE 6.9 mph - N/A   Mostly Cloudy
5:53 PM 57.0 °F 53.1 °F 87% 29.79 in 10.0 mi SSE 8.1 mph - 0.00 in Rain Light Rain
6:27 PM 55.4 °F 53.6 °F 94% 29.79 in 9.0 mi Variable 5.8 mph - 0.00 in Rain Light Rain
6:36 PM 53.6 °F 50.0 °F 88% 29.79 in 6.0 mi Variable 4.6 mph - 0.01 in Rain Rain
6:45 PM 51.8 °F 50.0 °F 94% 29.79 in 4.0 mi SSW 6.9 mph - 0.04 in Rain Heavy Rain
6:53 PM 52.0 °F 50.0 °F 93% 29.80 in 4.0 mi South 4.6 mph - 0.08 in Rain Rain
7:53 PM 52.0 °F 51.1 °F 97% 29.81 in 9.0 mi ESE 3.5 mph - 0.10 in Rain Light Rain
8:42 PM 53.6 °F 51.8 °F 94% 29.81 in 9.0 mi SE 4.6 mph - 0.05 in Rain Light Rain
8:51 PM 53.6 °F 51.8 °F 94% 29.81 in 10.0 mi SE 5.8 mph - 0.05 in Rain Light Rain
8:53 PM 53.1 °F 51.1 °F 93% 29.82 in 10.0 mi SE 5.8 mph - 0.05 in Rain Light Rain
9:53 PM 53.1 °F 51.1 °F 93% 29.82 in 10.0 mi SE 4.6 mph - 0.00 in   Overcast
10:07 PM 53.6 °F 51.8 °F 94% 29.82 in 10.0 mi SSE 4.6 mph - N/A   Overcast
10:53 PM 53.1 °F 51.1 °F 93% 29.82 in 10.0 mi SE 5.8 mph - N/A   Overcast
11:51 PM 53.6 °F 51.8 °F 94% 29.83 in 10.0 mi SE 3.5 mph - N/A   Mostly Cloudy
11:53 PM 54.0 °F 52.0 °F 93% 29.83 in 10.0 mi SE 3.5 mph - N/A   Mostly Cloudy